Regional Weather Roundup
Issued by NWS

Home | Current Version | Previous Version | Graphics & Text | Print | Product List | Glossary On
Versions: 1 2 3 4 5 6 7 8 9 10 11 12 13 14 15 16 17 18 19 20 21 22 23 24 25 26 27 28 29 30 31 32 33 34 35 36 37 38 39 40 41 42 43 44 45 46 47 48 49 50
105
ASUS43 KOAX 251002
RWRNE

WEATHER ROUNDUP FOR NEBRASKA
NATIONAL WEATHER SERVICE OMAHA NE
500 AM CDT WED MAY 25 2016

NOTES: SATELLITE DATA IS BEING USED TO AUGMENT CLOUD COVER ABOVE
       12000 FEET.
       "FAIR" INDICATES FEW OR NO CLOUDS BELOW 12,000 FEET WITH NO
       SIGNIFICANT WEATHER AND/OR OBSTRUCTIONS TO VISIBILITY.

  * THESE STATIONS DO NOT REPORT WEATHER SUCH AS RAIN...SNOW OR FOG.

NEZ001>004-019>022-054>056-251100-
NEBRASKA PANHANDLE

CITY           SKY/WX    TMP DP  RH WIND       PRES   REMARKS
SCOTTSBLUFF    CLOUDY    52  48  86 SE5       29.89R
ALLIANCE       CLOUDY    51  50  96 SE3       29.87F
CHADRON        CLOUDY    45  32  60 CALM      29.85S
SIDNEY         CLOUDY    50  48  93 N6        29.90F
$$

NEZ057>060-069>072-079>082-251100-
SOUTHWEST NEBRASKA

CITY           SKY/WX    TMP DP  RH WIND       PRES   REMARKS
NORTH PLATTE   CLOUDY    57  55  93 SE8       29.80F
IMPERIAL       MOCLDY    57  50  77 NE7       29.83S
LEXINGTON      LGT RAIN  58  55  88 N3        29.89R
MCCOOK         LGT RAIN  60  56  86 NE14      29.86R
$$

NEZ005>010-023>029-035>040-094-251100-
NORTH CENTRAL NEBRASKA

CITY           SKY/WX    TMP DP  RH WIND       PRES   REMARKS
VALENTINE      CLOUDY    57  54  89 NW5       29.83R
AINSWORTH      MOCLDY    57  55  95 SW13      29.83R
BROKEN BOW     RAIN      58  56  93 SW9       29.90R FOG
ORD            RAIN      59  57  93 NW6       29.84R
$$

NEZ041-046>049-061>064-073>077-083>087-251100-
SOUTH CENTRAL NEBRASKA

CITY           SKY/WX    TMP DP  RH WIND       PRES   REMARKS
GRAND ISLAND   TSTM      60  58  92 SE9       29.86R
HASTINGS       TSTM      60  59  96 E9        29.81R FOG
KEARNEY *      CLOUDY    61  55  82 NW15      29.90R THUNDER
YORK           LGT RAIN  63  57  82 S6        29.85R
$$

NEZ011>018-030>034-042>045-251100-
NORTHEAST NEBRASKA

CITY           SKY/WX    TMP DP  RH WIND       PRES   REMARKS
NORFOLK        CLOUDY    61  55  81 SE9       29.78F
ALBION         RAIN      59  56  90 CALM      29.84R
FREMONT        CLOUDY    65  56  73 W6        29.82R
TEKAMAH        CLOUDY    65  58  78 W8        29.82R
$$

NEZ050>053-065>068-078-088>093-251100-
SOUTHEAST NEBRASKA

CITY           SKY/WX    TMP DP  RH WIND       PRES   REMARKS
LINCOLN        CLOUDY    66  58  75 W13G22    29.83R
OMAHA EPPLEY   LGT RAIN  65  60  84 SE12G29   29.75F
FALLS CITY     CLOUDY    63  62  97 NE3       29.78F
$$

NEZ044-045-051>053-067-251100-
OMAHA AREA

CITY           SKY/WX    TMP DP  RH WIND       PRES   REMARKS
OMAHA EPPLEY   LGT RAIN  65  60  84 SE12G29   29.75F
FREMONT        CLOUDY    65  56  73 W6        29.82R
$$




USA.gov is the U.S. government's official web portal to all federal, state and local government web resources and services.